Вернуться в каталог

TITAN 3C TRANSTAGE DEB

АктивенMEO
NORAD 25000·DEBRIS·🇺🇸 United States

Запущен Sep 26, 1968 с Cape Canaveral Space Force Station

Loading…

Ближайшие Пролёты (ближайшие 24 часа)

TLE

СвежийSource: Space-Track

Эпоха: Sep 14, 2026, 13:31 UTC

1 25000U 68081G   26257.56331591 -.00000084  00000-0  00000-0 0  9998
2 25000   2.0778  47.1414 0112324 287.4772  91.8721  1.01035810126224

Отслеживайте TITAN 3C TRANSTAGE DEB в реальном времени с AllMySat

Download on the App Store